STARLINK-1132, 45044

Orbit data source: Space-Track

STARLINK-1132, 45044 is a payload satellite owned by SpaceX/Seattle (US) in LEO that was launched on Wed, 29 Jan 2020 UTC via an FALCON 9 launch vehicle from the Air Force Eastern Test Range (AFETR). Payload-class satellites include a variety of spacecraft equipped with specific instruments for various scientific and technological missions. These include communications satellites like Starlink; space stations such as the ISS; scientific satellites like the Hubble; Earth observation satellites from companies like Planet Labs, Umbra, and HawkEye 360; GPS; miniature CubeSats for education and research; and military/defense satellites.

Loading next visibility...
Identifier
45044, 2020-006A
Orbit
LEO
Country
Flag of USUS
Related business
Manufacturer
SpaceX/Seattle
Mission
Partially operational Commercial Communications
Bus & Motor
STARLINK, Unknown motor
Mass
260 kg wet, ~248 kg dry
Launch date (UTC)
2020-01-29 (7 years ago)
Launch vehicle
FALCON 9
Launch site
Air Force Eastern Test Range (AFETR)
Object type
Payload
Rocket body
Debris
Shape & HBR
Box + 1 Pan, 10.1 m
Radar Cross Section
13.562 m², Large (>1 m²)

Expand to show TLE details & history
Last TLE update: 2 days ago

TLE from 2 days ago
0 STARLINK-1132
1 45044U 20006A   26256.85625240  .00057533  00000-0  41780-3 0  9994
2 45044  53.1469  62.8125 0000689 231.2880 128.8078 15.72843488366254
Epoch: 2026-09-13T20:33Z
TLE epoch observation values (Epoch: 2026-09-13T20:33:00.207Z)
Latitude
0.00002°
Longitude
121.71675°
Altitude
351.98 km
Speed
7.699 km/s
True Right ascension
04h 11m 15s
True Declination
0° 00' 00"
Sunlit
Object was in full shadow at epoch
Visualization orbit readout
Latitude
Unknown
Longitude
Unknown
Altitude
Unknown
Speed
Unknown
Apparent Right ascension
Unknown
Apparent Declination
Unknown
Sunlit
N/A
Visualization observer readout
Local Sidereal Time
05:54:54
Azimuth
Unknown
Elevation
Unknown
Doppler factor
Unknown
Orbital elements
Apogee altitude
351.502 km
Perigee altitude
350.574 km
Semi-major axis
6,729.175 km
Eccentricity
0.00007
Inclination
53.1469°
RAAN
62.8125°
Arg. of periapsis
231.288°
True anomaly
128.81395°
Mean anomaly
128.8078°
Eccentric anomaly
128.81088°
Mean motion
3.93188 °/min
Orbital period
91.56 mins
BSTAR
0.0004178
Loading maneuver chart data...
Computing Atmospheric mass density...

Documentation

Showing up to 5 results
|